[[{"header":{"parameterUnit":"m.s-1","parameterCategory":1,"la1":30.2992,"la2":30.254,"lo1":-89.0895,"lo2":-89.0443,"dy":0.0025,"dx":0.0025,"nx":19,"ny":19,"refTime":"2026-04-25T03:00:00:Z","depth":0,"parameterNumber":2,"parameterNumberName":"U-component_of_WINDS"},"data":[0,0,0,-2.238,-2.238,-2.2371,-2.2371,-2.2373,-2.2373,0,0,0,0,0,0,0,0,0,0,0,-2.239,-2.239,-2.238,-2.238,-2.2371,-2.2371,-2.2373,-2.2373,0,0,0,0,0,0,0,0,0,0,0,-2.239,-2.239,-2.239,-2.238,-2.2371,-2.2371,-2.2373,-2.2375,0,0,0,0,0,0,0,0,0,0,-2.2382,-2.2397,-2.239,-2.2391,-2.238,-2.2371,-2.2371,-2.2375,-2.2375,-2.2382,0,-2.239,0,-2.2382,-2.2374,-2.2374,0,0,0,-2.2375,-2.2397,-2.2389,-2.2391,-2.238,-2.2371,-2.2374,-2.2375,-2.2375,-2.2382,-2.239,-2.239,-2.2382,-2.2374,-2.2374,-2.2432,-2.2433,0,0,-2.2376,-2.2392,-2.2389,-2.2389,-2.239,-2.2374,-2.2374,-2.2375,-2.2384,-2.239,-2.2389,-2.2382,-2.2374,-2.2374,-2.2432,-2.2432,0,0,0,-2.2381,-2.2393,-2.2384,-2.2389,-2.2387,-2.2374,-2.2374,-2.2384,-2.238,-2.2389,-2.2382,-2.2374,-2.2374,-2.2431,-2.2432,-2.2473,0,0,0,-2.2381,-2.2396,-2.2384,-2.2394,-2.2387,-2.2385,-2.2383,-2.238,-2.2379,-2.2382,-2.2374,-2.2375,-2.2431,-2.2432,-2.247,-2.2489,0,0,0,-2.2388,-2.2396,-2.2397,-2.2395,-2.2392,-2.2385,-2.238,-2.2379,-2.2375,-2.2374,-2.2375,-2.243,-2.2431,-2.2468,-2.2486,-2.2509,0,0,0,-2.2401,-2.2434,-2.2398,-2.2432,-2.2392,-2.241,-2.238,-2.2393,-2.2397,-2.2374,-2.2431,-2.2432,-2.2468,-2.2483,-2.2507,-2.2531,-2.2543,0,0,-2.2452,-2.244,-2.2459,-2.2427,-2.2456,-2.241,-2.2445,-2.2433,-2.2418,-2.2429,-2.243,-2.2471,-2.2485,-2.2509,-2.2605,-2.2615,0,0,0,-2.2481,-2.2494,-2.2498,-2.2503,-2.2495,-2.249,-2.2471,-2.2467,-2.2475,-2.2427,-2.2486,-2.2494,-2.2507,-2.2518,-2.2526,-2.2536,-2.2438,-2.2438,-2.2438,-2.2575,-2.2554,-2.2584,-2.2563,-2.2568,-2.2549,-2.2552,-2.2543,-2.2521,-2.2536,-2.2538,-2.2599,-2.2613,-2.2618,-2.2629,-2.255,-2.255,-2.255,-2.255,-2.2646,-2.2662,-2.2633,-2.2651,-2.263,-2.2645,-2.2629,-2.2613,-2.2625,-2.2595,-2.2606,-2.2574,-2.263,-2.2638,-2.2553,-2.2553,-2.2552,-2.2552,-2.2552,-2.2705,-2.2709,-2.2704,-2.2709,-2.2716,-2.2694,-2.2707,-2.2688,-2.2669,-2.268,-2.2681,-2.268,-2.2676,-2.2682,-2.2682,-2.2682,-2.2682,-2.2683,-2.2683,-2.2768,-2.2761,-2.2773,-2.2769,-2.277,-2.2769,-2.2752,-2.2753,-2.2749,-2.2733,-2.2733,-2.271,-2.2639,-2.2621,-2.2686,-2.2685,-2.2685,-2.2685,-2.2684,-2.2846,-2.2826,-2.2846,-2.2847,-2.284,-2.2849,-2.2825,-2.2828,-2.2826,-2.2833,-2.2809,-2.2759,-2.2747,-2.274,-2.2725,-2.2813,-2.2813,-2.2813,-2.2813,-2.2896,-2.2888,-2.2904,-2.2907,-2.2908,-2.2888,-2.2913,-2.2901,-2.2885,-2.2883,-2.2868,-2.2847,-2.2841,-2.2831,-2.2823,-2.2808,-2.2915,-2.2916,-2.2916,-2.2943,-2.2934,-2.2958,-2.2942,-2.2936,-2.2932,-2.2954,-2.296,-2.2938,-2.2919,-2.2881,-2.2876,-2.2842,-2.2832,-2.2811,-2.2798,-2.2771,0,0]},{"header":{"parameterUnit":"m.s-1","parameterCategory":1,"la1":30.2992,"la2":30.254,"lo1":-89.0895,"lo2":-89.0443,"dy":0.0025,"dx":0.0025,"nx":19,"ny":19,"refTime":"2026-04-25T03:00:00:Z","depth":0,"parameterNumber":3,"parameterNumberName":"V-component_of_WINDS"},"data":[0,0,0,4.8049,4.8047,4.7985,4.7985,4.7895,4.7894,0,0,0,0,0,0,0,0,0,0,0,4.8065,4.8064,4.8049,4.8047,4.7985,4.7985,4.7895,4.7894,0,0,0,0,0,0,0,0,0,0,0,4.8065,4.8064,4.8064,4.8047,4.7985,4.7985,4.7895,4.7945,0,0,0,0,0,0,0,0,0,0,4.8007,4.802,4.8065,4.8064,4.8047,4.7985,4.7985,4.7947,4.7942,4.792,0,4.7904,0,4.7898,4.7888,4.7887,0,0,0,4.8048,4.8025,4.8011,4.8064,4.8046,4.7985,4.8013,4.7944,4.7938,4.7913,4.7902,4.7899,4.7896,4.7887,4.7887,4.777,4.777,0,0,4.8051,4.8051,4.8015,4.8007,4.802,4.8015,4.8011,4.7941,4.7928,4.7902,4.7897,4.7895,4.7886,4.7886,4.7771,4.777,0,0,0,4.8061,4.8053,4.8041,4.801,4.8,4.8013,4.8009,4.7931,4.7927,4.7896,4.7894,4.7886,4.7885,4.7772,4.7771,4.7744,0,0,0,4.8063,4.8059,4.8043,4.8042,4.8001,4.7965,4.8,4.7932,4.7924,4.7894,4.7886,4.7884,4.7772,4.7771,4.7746,4.773,0,0,0,4.807,4.806,4.8051,4.8042,4.8016,4.7967,4.7959,4.793,4.7922,4.7887,4.7884,4.7773,4.7771,4.7748,4.7734,4.7701,0,0,0,4.8075,4.8025,4.805,4.7993,4.8016,4.7952,4.7959,4.791,4.7877,4.7885,4.7772,4.7771,4.7749,4.7735,4.7703,4.7673,4.7661,0,0,4.8011,4.8017,4.7983,4.8004,4.7936,4.7962,4.7888,4.7856,4.785,4.7796,4.7793,4.7746,4.7734,4.7701,4.7595,4.7585,0,0,0,4.7963,4.7938,4.7921,4.7892,4.7869,4.7847,4.7827,4.7815,4.7771,4.7824,4.7725,4.7718,4.7699,4.7684,4.7676,4.766,4.7764,4.7765,4.7765,4.7869,4.787,4.7814,4.7807,4.7778,4.7761,4.7736,4.7717,4.7721,4.7698,4.7682,4.7618,4.7601,4.7595,4.7578,4.7667,4.7667,4.7667,4.7667,4.7774,4.774,4.7753,4.7704,4.7703,4.766,4.7641,4.7647,4.7605,4.7629,4.7612,4.7639,4.7585,4.7569,4.7664,4.7665,4.7665,4.7665,4.7665,4.7712,4.7696,4.7686,4.7647,4.7615,4.7609,4.757,4.757,4.7569,4.7553,4.7535,4.7536,4.7536,4.7545,4.7545,4.7545,4.7544,4.7544,4.7544,4.7651,4.7641,4.7611,4.7585,4.7568,4.7545,4.7529,4.751,4.7489,4.7492,4.7492,4.7499,4.7581,4.7601,4.7541,4.7541,4.7542,4.7542,4.7542,4.7553,4.7577,4.7529,4.7512,4.7484,4.7453,4.7456,4.7419,4.7404,4.7384,4.7396,4.7457,4.7461,4.7467,4.7484,4.7397,4.7397,4.7397,4.7397,4.75,4.7504,4.7457,4.7431,4.7405,4.7404,4.7348,4.7335,4.7324,4.7314,4.7327,4.7349,4.7356,4.7356,4.7365,4.738,4.7269,4.7269,4.7269,4.744,4.7442,4.7396,4.7391,4.7369,4.7349,4.7297,4.7264,4.7256,4.7264,4.7306,4.7312,4.7348,4.736,4.7366,4.738,4.7408,0,0]}]]